TimePDT,TemperatureF,Dew PointF,Humidity,Sea Level PressureIn,VisibilityMPH,Wind Direction,Wind SpeedMPH,Gust SpeedMPH,PrecipitationIn,Events,Conditions,WindDirDegrees,DateUTC
12:15 AM,50.0,46.4,87,30.08,7.0,NW,8.1,-,N/A,,Clear,320,2012-10-09 07:15:00
12:35 AM,48.2,44.6,87,30.09,7.0,NW,6.9,-,N/A,,Clear,320,2012-10-09 07:35:00
12:55 AM,48.2,46.4,93,30.09,7.0,WNW,5.8,-,N/A,,Partly Cloudy,290,2012-10-09 07:55:00
1:15 AM,48.2,44.6,87,30.09,7.0,West,4.6,-,N/A,,Mostly Cloudy,260,2012-10-09 08:15:00
1:35 AM,50.0,44.6,82,30.09,7.0,WNW,6.9,-,N/A,,Overcast,290,2012-10-09 08:35:00
1:55 AM,50.0,46.4,87,30.08,8.0,West,6.9,-,N/A,,Overcast,270,2012-10-09 08:55:00
2:15 AM,53.6,46.4,77,30.08,8.0,NW,5.8,-,N/A,,Overcast,310,2012-10-09 09:15:00
2:35 AM,53.6,46.4,77,30.08,8.0,WNW,6.9,-,N/A,,Overcast,290,2012-10-09 09:35:00
2:55 AM,53.6,46.4,77,30.08,8.0,WNW,9.2,-,N/A,,Overcast,300,2012-10-09 09:55:00
3:15 AM,53.6,46.4,77,30.07,8.0,WNW,8.1,-,N/A,,Overcast,290,2012-10-09 10:15:00
3:35 AM,53.6,46.4,77,30.07,8.0,West,9.2,-,N/A,,Overcast,270,2012-10-09 10:35:00
3:55 AM,51.8,46.4,82,30.06,8.0,WNW,8.1,-,N/A,,Overcast,290,2012-10-09 10:55:00
4:15 AM,51.8,46.4,82,30.05,8.0,WNW,6.9,-,N/A,,Overcast,290,2012-10-09 11:15:00
4:35 AM,51.8,46.4,82,30.06,7.0,West,8.1,-,N/A,,Overcast,280,2012-10-09 11:35:00
4:55 AM,50.0,46.4,87,30.05,8.0,West,9.2,-,N/A,,Overcast,270,2012-10-09 11:55:00
5:15 AM,51.8,46.4,82,30.06,7.0,West,11.5,-,N/A,,Overcast,280,2012-10-09 12:15:00
5:55 AM,50.0,44.6,82,30.06,8.0,West,11.5,-,N/A,,Overcast,280,2012-10-09 12:55:00
6:15 AM,50.0,44.6,82,30.07,8.0,West,11.5,-,N/A,,Overcast,270,2012-10-09 13:15:00
6:35 AM,50.0,44.6,82,30.07,9.0,West,11.5,-,N/A,,Overcast,260,2012-10-09 13:35:00
6:55 AM,50.0,44.6,82,30.07,6.0,West,6.9,-,N/A,,Haze,270,2012-10-09 13:55:00
7:35 AM,48.2,44.6,87,30.08,6.0,NW,3.5,-,N/A,,Haze,310,2012-10-09 14:35:00
7:55 AM,48.2,44.6,87,30.08,5.0,NNW,4.6,-,N/A,,Partly Cloudy,330,2012-10-09 14:55:00
8:15 AM,50.0,44.6,82,30.08,5.0,NW,6.9,-,N/A,,Haze,310,2012-10-09 15:15:00
8:35 AM,53.6,46.4,77,30.07,7.0,WNW,4.6,-,N/A,,Clear,290,2012-10-09 15:35:00
8:55 AM,53.6,44.6,72,30.07,7.0,WNW,6.9,-,N/A,,Clear,290,2012-10-09 15:55:00
9:15 AM,55.4,46.4,72,30.07,7.0,NW,10.4,-,N/A,,Clear,310,2012-10-09 16:15:00
9:35 AM,57.2,46.4,67,30.07,7.0,NW,12.7,-,N/A,,Clear,320,2012-10-09 16:35:00
9:55 AM,57.2,46.4,67,30.07,7.0,NW,10.4,-,N/A,,Clear,310,2012-10-09 16:55:00
10:15 AM,57.2,46.4,67,30.07,8.0,NW,12.7,17.3,N/A,,Clear,310,2012-10-09 17:15:00
10:35 AM,59.0,46.4,63,30.07,8.0,NW,13.8,17.3,N/A,,Clear,320,2012-10-09 17:35:00
10:55 AM,59.0,44.6,59,30.06,7.0,NW,16.1,-,N/A,,Clear,320,2012-10-09 17:55:00
11:15 AM,60.8,44.6,55,30.06,5.0,NW,16.1,19.6,N/A,,Haze,310,2012-10-09 18:15:00
11:35 AM,62.6,44.6,52,30.05,7.0,NW,13.8,19.6,N/A,,Clear,320,2012-10-09 18:35:00
11:55 AM,62.6,44.6,52,30.05,8.0,NW,15.0,20.7,N/A,,Clear,320,2012-10-09 18:55:00
12:15 PM,62.6,44.6,52,30.04,8.0,NW,13.8,-,N/A,,Clear,310,2012-10-09 19:15:00
12:35 PM,64.4,44.6,49,30.04,7.0,NW,17.3,-,N/A,,Clear,310,2012-10-09 19:35:00
12:55 PM,64.4,44.6,49,30.04,8.0,NW,12.7,-,N/A,,Clear,320,2012-10-09 19:55:00
1:15 PM,62.6,44.6,52,30.03,9.0,NW,13.8,-,N/A,,Clear,320,2012-10-09 20:15:00
1:35 PM,62.6,44.6,52,30.03,9.0,NW,15.0,-,N/A,,Clear,310,2012-10-09 20:35:00
2:15 PM,60.8,44.6,55,30.02,9.0,NW,12.7,-,N/A,,Clear,310,2012-10-09 21:15:00
2:35 PM,60.8,44.6,55,30.02,8.0,NW,13.8,-,N/A,,Clear,310,2012-10-09 21:35:00
2:55 PM,60.8,44.6,55,30.03,8.0,NW,13.8,19.6,N/A,,Partly Cloudy,320,2012-10-09 21:55:00
3:15 PM,59.0,44.6,59,30.03,8.0,NW,12.7,-,N/A,,Scattered Clouds,320,2012-10-09 22:15:00
3:35 PM,59.0,44.6,59,30.03,8.0,NW,12.7,-,N/A,,Partly Cloudy,320,2012-10-09 22:35:00
3:55 PM,57.2,44.6,63,30.03,8.0,NW,12.7,-,N/A,,Clear,320,2012-10-09 22:55:00
4:15 PM,57.2,44.6,63,30.02,8.0,WNW,8.1,-,N/A,,Scattered Clouds,300,2012-10-09 23:15:00
4:35 PM,57.2,44.6,63,30.02,8.0,NW,9.2,-,N/A,,Mostly Cloudy,310,2012-10-09 23:35:00
4:55 PM,57.2,44.6,63,30.01,8.0,NW,6.9,-,N/A,,Scattered Clouds,320,2012-10-09 23:55:00
5:15 PM,57.2,44.6,63,30.01,8.0,WNW,8.1,-,N/A,,Scattered Clouds,290,2012-10-10 00:15:00
5:35 PM,57.2,42.8,59,30.02,8.0,NW,9.2,-,N/A,,Mostly Cloudy,310,2012-10-10 00:35:00
5:55 PM,57.2,42.8,59,30.02,8.0,West,8.1,-,N/A,,Overcast,270,2012-10-10 00:55:00
6:15 PM,55.4,44.6,67,30.02,8.0,NW,8.1,-,N/A,,Overcast,310,2012-10-10 01:15:00
6:35 PM,55.4,44.6,67,30.01,8.0,NW,3.5,-,N/A,,Mostly Cloudy,310,2012-10-10 01:35:00
6:55 PM,55.4,42.8,63,30.02,10.0,NW,8.1,-,N/A,,Mostly Cloudy,310,2012-10-10 01:55:00
7:15 PM,55.4,42.8,63,30.02,10.0,WSW,3.5,-,N/A,,Scattered Clouds,250,2012-10-10 02:15:00
7:35 PM,53.6,42.8,67,30.02,10.0,West,5.8,-,N/A,,Partly Cloudy,270,2012-10-10 02:35:00
7:55 PM,53.6,42.8,67,30.03,9.0,Calm,Calm,-,N/A,,Clear,0,2012-10-10 02:55:00
8:15 PM,51.8,41.0,67,30.03,10.0,NNE,4.6,-,N/A,,Clear,20,2012-10-10 03:15:00
8:35 PM,50.0,41.0,71,30.03,9.0,Calm,Calm,-,N/A,,Clear,0,2012-10-10 03:35:00
8:55 PM,50.0,41.0,71,30.03,10.0,Calm,Calm,-,N/A,,Clear,0,2012-10-10 03:55:00
9:15 PM,48.2,35.6,62,30.03,10.0,Calm,Calm,-,N/A,,Clear,0,2012-10-10 04:15:00
9:35 PM,48.2,35.6,62,30.03,10.0,Calm,Calm,-,N/A,,Clear,0,2012-10-10 04:35:00
9:55 PM,44.6,33.8,66,30.03,10.0,NNW,3.5,-,N/A,,Clear,330,2012-10-10 04:55:00
10:15 PM,46.4,33.8,62,30.04,10.0,Calm,Calm,-,N/A,,Clear,0,2012-10-10 05:15:00
10:55 PM,46.4,33.8,62,30.03,10.0,Calm,Calm,-,N/A,,Clear,0,2012-10-10 05:55:00
11:15 PM,41.0,33.8,76,30.03,10.0,Calm,Calm,-,N/A,,Clear,0,2012-10-10 06:15:00
11:35 PM,39.2,33.8,81,30.02,10.0,SE,5.8,-,N/A,,Clear,130,2012-10-10 06:35:00
11:55 PM,39.2,35.6,87,30.02,10.0,East,3.5,-,N/A,,Clear,100,2012-10-10 06:55:00